Виндхук

Намибия     22˚34′02″S   17˚05′14″E
темп.,
°C
ветер,
м/с
пор.,
м/с
влажн.,
%
обл.,
%
осадки,
мм/ч
давл.,
гПа
погр.,
м
16 января, сб
сб1623:00+18˚ююз3584100 9.9 1011454
02:00+19˚ююз3679100 12.8 1010551
05:00+19˚ююв3677100 0.1 1009531
08:00+19˚юв487284 0.1 1011603
11:00+23˚вюв335842 0.0 10101018
14:00+25˚ююв335053 0.5 10071438
17:00+23˚ююз1359100 3.4 1006884
20:00+23˚ююв3563100 6.2 1008566
17 января, вс
вс1723:00+21˚юз3469100 0.8 1011336
02:00+19˚юз1376100 0.8 1010264
05:00+17˚сз1183100 0.0 1010107
08:00+20˚ююв2365100 0.0 1011339
11:00+24˚вюв3447100 0.0 10111164
14:00+26˚всв3241100 0.0 10081793
17:00+26˚зюз1241100 0.0 10061664
20:00+24˚з4554100 0.0 1008475
18 января, пн
пн1823:00+20˚юз345734 0.0 1011210
02:00+19˚юз236022 0.0 1010162
05:00+19˚ю45587 0.0 1011127
08:00+21˚ююв37423 0.0 1011423
11:00+25˚в23320 0.0 10101160
14:00+28˚в22279 0.0 10072742
17:00+28˚зсз222999 0.0 10052230
20:00+24˚юз7103899 0.0 1007387
19 января, вт
вт1923:00+22˚юз3542100 0.0 1010316
02:00+21˚юз244782 0.0 1010183
05:00+19˚ю235228 0.0 100985
08:00+21˚ююв244362 0.0 1010319
11:00+26˚вюв232945 0.0 10091275
14:00+29˚ссз222349 0.0 10072924
17:00+27˚з893399 0.0 10051395
20:00+21˚юз71043100 0.0 1007410
20 января, ср
ср2023:00+19˚юз365033 0.0 1010312
02:00+19˚юз235517 0.0 1010135
05:00+20˚ююз265387 0.0 1010355
08:00+19˚ююв465360 0.0 1011398
11:00+23˚вюв22420 0.0 1010871
14:00+27˚сз553514 0.0 10072042
17:00+26˚ююз774070 0.0 10061613
20:00+22˚юз8114657 0.0 1008634